(°C)
13°
12°
12°
11°
10°
10°
(°C)
SSW
SW
SW
SW
SW
SSW
SSW
(km/h)
25-38
24-35
22-32
20-29
18-27
16-25
16-22
(mm)
0
0
0
0
0
0
0
(%)
0
6
0
0
0
0
0

Wysokość słońca

/ -34.7°
sun-icon
UV 1
07:16
17:30
Ubywający Księżyc garbaty (201°)
18:12
09:01

METAR dla 53.5°N 50.15°E (UWWW)

Czas Warunki Temperatura/
Punkt rosy
Wiatr Widzialność Pogoda Chmury Ciśn. atm. Zmień Surowy
VFR 13°C / 7°C 240º 17kt >10km - Clouds and Visibility OK 1005 No Significant change UWWW 221700Z 24009MPS CAVOK 13/07 Q1005 R15/CLRD60 NOSIG RMK QFE742/0990
VFR 13°C / 7°C 240º 16kt Gust 25kt >10km - Clouds and Visibility OK 1004 No Significant change UWWW 221630Z 24008G13MPS CAVOK 13/07 Q1004 R15/CLRD60 NOSIG RMK QFE742/0989
VFR 12°C / 7°C 240º 19kt >10km - Clouds and Visibility OK 1004 No Significant change UWWW 221600Z 24010MPS CAVOK 12/07 Q1004 R15/CLRD60 NOSIG RMK QFE742/0989
VFR 12°C / 7°C 240º 16kt >10km - Clouds and Visibility OK 1004 No Significant change UWWW 221530Z 24008MPS CAVOK 12/07 Q1004 R15/CLRD60 NOSIG RMK QFE742/0989
VFR 12°C / 6°C 240º 16kt >10km - Clouds and Visibility OK 1004 No Significant change UWWW 221500Z 24008MPS CAVOK 12/06 Q1004 R15/CLRD60 NOSIG RMK QFE741/0989
VFR 12°C / 6°C 230º 17kt >10km - Few Clouds 3300ft 1004 No Significant change UWWW 221430Z 23009MPS 9999 FEW033 12/06 Q1004 R15/CLRD60 NOSIG RMK QFE741/0989
VFR 12°C / 6°C 230º 17kt >10km - Few Clouds 3300ft 1003 No Significant change UWWW 221400Z 23009MPS 9999 FEW033 12/06 Q1003 R15/CLRD60 NOSIG RMK QFE741/0988
VFR 12°C / 6°C 240º 17kt >10km - Few Clouds 3300ft 1003 No Significant change UWWW 221330Z 24009MPS 9999 FEW033 12/06 Q1003 R15/CLRD60 NOSIG RMK QFE741/0988
VFR 12°C / 6°C 230º 16kt >10km - Few Clouds 3300ft 1003 No Significant change UWWW 221300Z 23008MPS 9999 FEW033 12/06 Q1003 R15/CLRD60 NOSIG RMK QFE741/0988
VFR 12°C / 6°C 230º 19kt >10km - Few Clouds 3300ft 1002 No Significant change UWWW 221230Z 23010MPS 9999 FEW033 12/06 Q1002 R15/CLRD60 NOSIG RMK QFE740/0987
VFR 12°C / 6°C 220º 19kt >10km - Few Clouds 3300ft 1002 No Significant change UWWW 221200Z 22010MPS 9999 FEW033 12/06 Q1002 R15/CLRD60 NOSIG RMK QFE740/0987
VFR 12°C / 6°C 220º 21kt >10km - Few Clouds 3300ft 1002 No Significant change. Runway 15: Damp, 51-100% contamination with <1mm, friction coefficient 0.55. UWWW 221130Z 22011MPS 9999 FEW033 12/06 Q1002 R15/190055 NOSIG RMK QFE740/0987
VFR 12°C / 6°C 220º 19kt >10km - Few Clouds 3300ft 1002 No Significant change. Runway 15: Damp, 51-100% contamination with <1mm, friction coefficient 0.55. UWWW 221100Z 22010MPS 9999 FEW033 12/06 Q1002 R15/190055 NOSIG RMK QFE740/0987
VFR 12°C / 6°C 220º 21kt >10km - Few Clouds 3300ft 1002 No Significant change. Runway 15: Damp, 51-100% contamination with <1mm, friction coefficient 0.55. UWWW 221030Z 22011MPS 9999 FEW033 12/06 Q1002 R15/190055 NOSIG RMK QFE740/0987
VFR 11°C / 6°C 220º 21kt >10km - Few Clouds 3300ft 1002 No Significant change. Runway 15: Damp, 51-100% contamination with <1mm, friction coefficient 0.55. UWWW 221000Z 22011MPS 9999 FEW033 11/06 Q1002 R15/190055 NOSIG RMK QFE740/0987
VFR 11°C / 5°C 220º 21kt >10km - Few Clouds 3300ft 1002 No Significant change. Runway 15: Damp, 51-100% contamination with <1mm, friction coefficient 0.55. UWWW 220930Z 22011MPS 9999 FEW033 11/05 Q1002 R15/190055 NOSIG RMK QFE740/0987
VFR 11°C / 6°C 220º 19kt >10km - Few Clouds 3300ft 1001 No Significant change. Runway 15: Damp, 51-100% contamination with <1mm, friction coefficient 0.55. UWWW 220900Z 22010MPS 9999 FEW033 11/06 Q1001 R15/190055 NOSIG RMK QFE740/0986
VFR 12°C / 6°C 230º 17kt >10km - Few Clouds 3300ft 1002 No Significant change. Runway 15: Damp, 51-100% contamination with <1mm, friction coefficient 0.55. UWWW 220830Z 23009MPS 9999 FEW033 12/06 Q1002 R15/190055 NOSIG RMK QFE740/0987
VFR 12°C / 6°C 230º 16kt >10km - Few Clouds 3300ft 1002 No Significant change. Runway 15: Damp, 51-100% contamination with <1mm, friction coefficient 0.55. UWWW 220800Z 23008MPS 9999 FEW033 12/06 Q1002 R15/190055 NOSIG RMK QFE740/0987
VFR 11°C / 6°C 240º 16kt >10km - Few Clouds 3300ft 1002 No Significant change. Runway 15: Damp, 51-100% contamination with <1mm, friction coefficient 0.55. UWWW 220730Z 24008MPS 9999 FEW033 11/06 Q1002 R15/190055 NOSIG RMK QFE740/0987
VFR 11°C / 5°C 240º 17kt >10km - Few Clouds 3300ft 1002 No Significant change. Runway 15: Damp, 51-100% contamination with <1mm, friction coefficient 0.55. UWWW 220700Z 24009MPS 9999 FEW033 11/05 Q1002 R15/190055 NOSIG RMK QFE740/0987
VFR 11°C / 5°C 240º 16kt >10km - Clouds and Visibility OK 1002 No Significant change. Runway 15: Damp, 51-100% contamination with <1mm, friction coefficient 0.55. UWWW 220630Z 24008MPS CAVOK 11/05 Q1002 R15/190055 NOSIG RMK QFE740/0987
VFR 10°C / 6°C 220º 16kt >10km - Clouds and Visibility OK 1002 No Significant change. Runway 15: Damp, 51-100% contamination with <1mm, friction coefficient 0.55. UWWW 220600Z 22008MPS CAVOK 10/06 Q1002 R15/190055 NOSIG RMK QFE740/0987
VFR 10°C / 6°C 220º 14kt >10km - Clouds and Visibility OK 1002 No Significant change. Runway 15: Damp, 51-100% contamination with <1mm, friction coefficient 0.55. UWWW 220530Z 22007MPS CAVOK 10/06 Q1002 R15/190055 NOSIG RMK QFE740/0987

VFR

13°C / 7°C

[Więcej]
Wiatr 240º 17kt
Widzialność >10km
Pogoda -
Chmury Clouds and Visibility OK
Ciśn. atm. 1005
Zmień No Significant change
Surowy UWWW 221700Z 24009MPS CAVOK 13/07 Q1005 R15/CLRD60 NOSIG RMK QFE742/0990

VFR

13°C / 7°C

[Więcej]
Wiatr 240º 16kt Gust 25kt
Widzialność >10km
Pogoda -
Chmury Clouds and Visibility OK
Ciśn. atm. 1004
Zmień No Significant change
Surowy UWWW 221630Z 24008G13MPS CAVOK 13/07 Q1004 R15/CLRD60 NOSIG RMK QFE742/0989

VFR

12°C / 7°C

[Więcej]
Wiatr 240º 19kt
Widzialność >10km
Pogoda -
Chmury Clouds and Visibility OK
Ciśn. atm. 1004
Zmień No Significant change
Surowy UWWW 221600Z 24010MPS CAVOK 12/07 Q1004 R15/CLRD60 NOSIG RMK QFE742/0989

VFR

12°C / 7°C

[Więcej]
Wiatr 240º 16kt
Widzialność >10km
Pogoda -
Chmury Clouds and Visibility OK
Ciśn. atm. 1004
Zmień No Significant change
Surowy UWWW 221530Z 24008MPS CAVOK 12/07 Q1004 R15/CLRD60 NOSIG RMK QFE742/0989

VFR

12°C / 6°C

[Więcej]
Wiatr 240º 16kt
Widzialność >10km
Pogoda -
Chmury Clouds and Visibility OK
Ciśn. atm. 1004
Zmień No Significant change
Surowy UWWW 221500Z 24008MPS CAVOK 12/06 Q1004 R15/CLRD60 NOSIG RMK QFE741/0989

VFR

12°C / 6°C

[Więcej]
Wiatr 230º 17kt
Widzialność >10km
Pogoda -
Chmury Few Clouds 3300ft
Ciśn. atm. 1004
Zmień No Significant change
Surowy UWWW 221430Z 23009MPS 9999 FEW033 12/06 Q1004 R15/CLRD60 NOSIG RMK QFE741/0989

VFR

12°C / 6°C

[Więcej]
Wiatr 230º 17kt
Widzialność >10km
Pogoda -
Chmury Few Clouds 3300ft
Ciśn. atm. 1003
Zmień No Significant change
Surowy UWWW 221400Z 23009MPS 9999 FEW033 12/06 Q1003 R15/CLRD60 NOSIG RMK QFE741/0988

VFR

12°C / 6°C

[Więcej]
Wiatr 240º 17kt
Widzialność >10km
Pogoda -
Chmury Few Clouds 3300ft
Ciśn. atm. 1003
Zmień No Significant change
Surowy UWWW 221330Z 24009MPS 9999 FEW033 12/06 Q1003 R15/CLRD60 NOSIG RMK QFE741/0988

VFR

12°C / 6°C

[Więcej]
Wiatr 230º 16kt
Widzialność >10km
Pogoda -
Chmury Few Clouds 3300ft
Ciśn. atm. 1003
Zmień No Significant change
Surowy UWWW 221300Z 23008MPS 9999 FEW033 12/06 Q1003 R15/CLRD60 NOSIG RMK QFE741/0988

VFR

12°C / 6°C

[Więcej]
Wiatr 230º 19kt
Widzialność >10km
Pogoda -
Chmury Few Clouds 3300ft
Ciśn. atm. 1002
Zmień No Significant change
Surowy UWWW 221230Z 23010MPS 9999 FEW033 12/06 Q1002 R15/CLRD60 NOSIG RMK QFE740/0987

VFR

12°C / 6°C

[Więcej]
Wiatr 220º 19kt
Widzialność >10km
Pogoda -
Chmury Few Clouds 3300ft
Ciśn. atm. 1002
Zmień No Significant change
Surowy UWWW 221200Z 22010MPS 9999 FEW033 12/06 Q1002 R15/CLRD60 NOSIG RMK QFE740/0987

VFR

12°C / 6°C

[Więcej]
Wiatr 220º 21kt
Widzialność >10km
Pogoda -
Chmury Few Clouds 3300ft
Ciśn. atm. 1002
Zmień No Significant change. Runway 15: Damp, 51-100% contamination with <1mm, friction coefficient 0.55.
Surowy UWWW 221130Z 22011MPS 9999 FEW033 12/06 Q1002 R15/190055 NOSIG RMK QFE740/0987

VFR

12°C / 6°C

[Więcej]
Wiatr 220º 19kt
Widzialność >10km
Pogoda -
Chmury Few Clouds 3300ft
Ciśn. atm. 1002
Zmień No Significant change. Runway 15: Damp, 51-100% contamination with <1mm, friction coefficient 0.55.
Surowy UWWW 221100Z 22010MPS 9999 FEW033 12/06 Q1002 R15/190055 NOSIG RMK QFE740/0987

VFR

12°C / 6°C

[Więcej]
Wiatr 220º 21kt
Widzialność >10km
Pogoda -
Chmury Few Clouds 3300ft
Ciśn. atm. 1002
Zmień No Significant change. Runway 15: Damp, 51-100% contamination with <1mm, friction coefficient 0.55.
Surowy UWWW 221030Z 22011MPS 9999 FEW033 12/06 Q1002 R15/190055 NOSIG RMK QFE740/0987

VFR

11°C / 6°C

[Więcej]
Wiatr 220º 21kt
Widzialność >10km
Pogoda -
Chmury Few Clouds 3300ft
Ciśn. atm. 1002
Zmień No Significant change. Runway 15: Damp, 51-100% contamination with <1mm, friction coefficient 0.55.
Surowy UWWW 221000Z 22011MPS 9999 FEW033 11/06 Q1002 R15/190055 NOSIG RMK QFE740/0987

VFR

11°C / 5°C

[Więcej]
Wiatr 220º 21kt
Widzialność >10km
Pogoda -
Chmury Few Clouds 3300ft
Ciśn. atm. 1002
Zmień No Significant change. Runway 15: Damp, 51-100% contamination with <1mm, friction coefficient 0.55.
Surowy UWWW 220930Z 22011MPS 9999 FEW033 11/05 Q1002 R15/190055 NOSIG RMK QFE740/0987

VFR

11°C / 6°C

[Więcej]
Wiatr 220º 19kt
Widzialność >10km
Pogoda -
Chmury Few Clouds 3300ft
Ciśn. atm. 1001
Zmień No Significant change. Runway 15: Damp, 51-100% contamination with <1mm, friction coefficient 0.55.
Surowy UWWW 220900Z 22010MPS 9999 FEW033 11/06 Q1001 R15/190055 NOSIG RMK QFE740/0986

VFR

12°C / 6°C

[Więcej]
Wiatr 230º 17kt
Widzialność >10km
Pogoda -
Chmury Few Clouds 3300ft
Ciśn. atm. 1002
Zmień No Significant change. Runway 15: Damp, 51-100% contamination with <1mm, friction coefficient 0.55.
Surowy UWWW 220830Z 23009MPS 9999 FEW033 12/06 Q1002 R15/190055 NOSIG RMK QFE740/0987

VFR

12°C / 6°C

[Więcej]
Wiatr 230º 16kt
Widzialność >10km
Pogoda -
Chmury Few Clouds 3300ft
Ciśn. atm. 1002
Zmień No Significant change. Runway 15: Damp, 51-100% contamination with <1mm, friction coefficient 0.55.
Surowy UWWW 220800Z 23008MPS 9999 FEW033 12/06 Q1002 R15/190055 NOSIG RMK QFE740/0987

VFR

11°C / 6°C

[Więcej]
Wiatr 240º 16kt
Widzialność >10km
Pogoda -
Chmury Few Clouds 3300ft
Ciśn. atm. 1002
Zmień No Significant change. Runway 15: Damp, 51-100% contamination with <1mm, friction coefficient 0.55.
Surowy UWWW 220730Z 24008MPS 9999 FEW033 11/06 Q1002 R15/190055 NOSIG RMK QFE740/0987

VFR

11°C / 5°C

[Więcej]
Wiatr 240º 17kt
Widzialność >10km
Pogoda -
Chmury Few Clouds 3300ft
Ciśn. atm. 1002
Zmień No Significant change. Runway 15: Damp, 51-100% contamination with <1mm, friction coefficient 0.55.
Surowy UWWW 220700Z 24009MPS 9999 FEW033 11/05 Q1002 R15/190055 NOSIG RMK QFE740/0987

VFR

11°C / 5°C

[Więcej]
Wiatr 240º 16kt
Widzialność >10km
Pogoda -
Chmury Clouds and Visibility OK
Ciśn. atm. 1002
Zmień No Significant change. Runway 15: Damp, 51-100% contamination with <1mm, friction coefficient 0.55.
Surowy UWWW 220630Z 24008MPS CAVOK 11/05 Q1002 R15/190055 NOSIG RMK QFE740/0987

VFR

10°C / 6°C

[Więcej]
Wiatr 220º 16kt
Widzialność >10km
Pogoda -
Chmury Clouds and Visibility OK
Ciśn. atm. 1002
Zmień No Significant change. Runway 15: Damp, 51-100% contamination with <1mm, friction coefficient 0.55.
Surowy UWWW 220600Z 22008MPS CAVOK 10/06 Q1002 R15/190055 NOSIG RMK QFE740/0987

VFR

10°C / 6°C

[Więcej]
Wiatr 220º 14kt
Widzialność >10km
Pogoda -
Chmury Clouds and Visibility OK
Ciśn. atm. 1002
Zmień No Significant change. Runway 15: Damp, 51-100% contamination with <1mm, friction coefficient 0.55.
Surowy UWWW 220530Z 22007MPS CAVOK 10/06 Q1002 R15/190055 NOSIG RMK QFE740/0987

TAF dla 53.5°N 50.15°E (UWWW)

From till


Maximum Temperature 14ºC on . Minimum Temperature 7ºC on .
From till Wind 210º 16kt. Gust 25kt. Visibility 10km or more. Broken Clouds 1600ft.
Temporarly from till Wind 250º 21kt. Gust 31kt.

Surowy: TAF UWWW 221353Z 2215/2315 21008G13MPS 9999 BKN016 TX14/2311Z TN07/2303Z TEMPO 2215/2218 25011G16MPS

Aktualne zdjęcia satelitarne i zdjęcia opadów deszczu dla 53.5°N 50.15°E

Wskaźnik lokalizacji znajduje się na 53.5°N 50.15°E. [Więcej]

Obraz satelitarny w czasie rzeczywistym łączy światło widzialne w ciągu dnia z promieniowaniem podczerwonym w nocy. W nocy obraz nie jest ciemny, ponieważ promieniowanie podczerwone może wykrywać różnice temperatur. Niestety niskie chmury i mgłę trudno odróżnić od temperatury gruntu, przez co mogą być prawie niewidoczne w nocy. Zdjęcia satelitarne Meteosat dla Europy są aktualizowane w czasie rzeczywistym co 5 minut. Obrazy GOES-16/GOES-17 (Ameryka Północna i Południowa) oraz Himawari (Azja) są aktualizowane co 10 minut.

Prawa autorskie 2021 EUMETSAT / meteoblue. / Prawa autorskie 2021 meteoblue

Radar i prognoza opadów na teraz dla 53.5°N 50.15°E

Mżawka
Lekki
Umiarkowane
Ulewne
Bardzo ciężkie
Grad

Wskaźnik lokalizacji jest umieszczony na 53.5°N 50.15°E. Animacja przedstawia radar opadów dla ostatniej godziny, jak również 1h prognozę pogody. Mżawka lub lekki opad śniegu może być niewidoczny dla radaru. Intensywność opadów jest oznaczona kolorami, od jasnoniebieskiego do pomarańczowego.